610  
ASUS42 KCHS 231811  
RWRCHS  
 
REGIONAL WEATHER ROUNDUP  
NATIONAL WEATHER SERVICE CHARLESTON SC  
100 PM EST SAT JAN 23 2021  
 
NOTE: "FAIR" INDICATES FEW OR NO CLOUDS BELOW 12,000 FEET WITH NO  
SIGNIFICANT WEATHER AND/OR S TO VISIBILITY
.  
 
NOT ALL STATIONS ARE QUALITY CONTROLLED. USE DATA WITH CAUTION,  
ESPECIALLY DEWPOINT OBSERVATIONS.  
 
SCZ027-030-031-034>040-042>050-231900-   
..SOUTHEAST SOUTH CAROLINA
 
 
 
CITY SKY/WX TMP DP RH WIND PRES REMARKS
 
N CHARLESTON MOSUNNY 57 28 33 N12 30.17F  
6HR MIN TEMP: 37; 6HR MAX TEMP: 57;  
 
WATERFRONT PRK N/A 55 36 48 N9 30.03F  
MOUNT PLEASANT FAIR 55 27 33 VRB5G12 30.17F  
JOHNS ISLAND FAIR 57 32 38 N8G15 30.17F  
PINOPOLIS N/A 48 32 53 N8 30.12F  
MONCKS CORNER FAIR 52 25 35 NE7 30.18F  
SUMMERVILLE FAIR 55 27 33 NE10G17 30.18F  
BEAUFORT MCAS SUNNY 59 38 45 NE7 30.17F  
6HR MIN TEMP: 38; 6HR MAX TEMP: 59;  
 
BEAUFORT ARPT FAIR 55 36 47 NE9 30.17F  
HILTON HEAD IS SUNNY 57 39 51 E12 30.18F  
WALTERBORO CLEAR 55 30 38 N9 30.19F  
ALLENDALE FAIR 55 30 38 NE3 30.18F  
   
..SOUTHERN MIDLANDS AND PEE DEE
 
 
 
CITY SKY/WX TMP DP RH WIND PRES REMARKS
 
GEORGETOWN FAIR 54 21 28 N13 30.19F  
KINGSTREE FAIR 52 18 25 N7 30.20F  
ORANGEBURG SUNNY 55 26 32 N13 30.19F  
6HR MIN TEMP: 35; 6HR MAX TEMP: 55;  
 
BARNWELL FAIR 55 28 35 NE9 30.19F  
AIKEN FAIR 55 26 32 NE13 30.19F  
MANNING FAIR 54 23 30 N9 30.20F  
COLUMBIA PTSUNNY 55 21 26 N7 30.19F  
6HR MIN TEMP: 30; 6HR MAX TEMP: 55;  
 
SUMTER NOT AVBL  
FLORENCE SUNNY 54 15 21 N12 30.19F  
6HR MIN TEMP: 37; 6HR MAX TEMP: 54;  
 
MYRTLE BEACH SUNNY 54 19 25 N18 30.17F  
N MYRTLE BEACH SUNNY 54 20 26 N12G20 30.16F  
6HR MIN TEMP: 38; 6HR MAX TEMP: 54;  
 

 
 
GAZ063-065-086>088-099>101-113>116-118-119-134>141-150-231900-   
..SOUTHEAST GEORGIA
 
 
 
CITY SKY/WX TMP DP RH WIND PRES REMARKS
 
SAVANNAH ARPT MOSUNNY 61 38 42 VRB6 30.16F  
6HR MIN TEMP: 43; 6HR MAX TEMP: 62;  
 
HUNTER AAF NOT AVBL  
FORT STEWART NOT AVBL  
STATESBORO SUNNY 57 37 48 E7 30.17F  
SYLVANIA CLEAR 58 38 47 E8 30.19F  
CLAXTON FAIR 61 40 45 CALM 30.17F  
MILLEN FAIR 57 34 41 E8 30.17F  
METTER FAIR 59 38 45 E9 30.17F  
REIDSVILLE NOT AVBL  
   
..CSRA, CENTRAL AND FAR SOUTHEAST GEORGIA
 
 
 
CITY SKY/WX TMP DP RH WIND PRES REMARKS
 
THOMSON SUNNY 54 29 38 E9 30.18F  
AUGUSTA-BUSH SUNNY 59 28 30 NE8 30.18F  
6HR MIN TEMP: 31; 6HR MAX TEMP: 60;  
 
AUGUSTA-DANIEL MOSUNNY 57 26 30 NE9 30.19F  
SWAINSBORO FAIR 59 37 44 E7 30.18F  
VIDALIA SUNNY 61 37 41 E7 30.16F  
EASTMAN FAIR 58 40 51 E3 30.19F  
HAZLEHURST FAIR 60 42 50 CALM 30.14F  
ALMA SUNNY 64 38 38 N7 30.14F  
6HR MIN TEMP: 42; 6HR MAX TEMP: 64;  
 
WAYCROSS MOSUNNY 65 25 22 E6 30.13F  
JESUP FAIR 63 43 48 E7 30.15F  
BAXLEY FAIR 61 39 44 E6 30.14F  
BRUNSWICK SUNNY 62 42 48 NE12G20 30.15F  
SAINT SIMONS MOSUNNY 61 43 51 NE13 30.15S  
6HR MIN TEMP: 50; 6HR MAX TEMP: 61;  
 

 
 
SCZ027-028-034-036>038-045-046-048>050-GAZ119-141-231900-   
..LAKE AND SUPPLEMENTAL COASTAL OBSERVATIONS
 
 
 
STATION/POSITION TIME TEMP WIND PRES WAVE SWELL
 
AIR SEA DIR/SP/G HT/PER HT/PER/DIR  
(UTC) (F) (DEG/KT/KT) (MB) (FT/S) (FT/S/D)  
WINYAH BAY 1645 51 10/ 9 1022.0  
LAKE MURRAY 1720 50 40/ 3/ 8 N/A  
CHRLSTN HARBOR 1724 56 53 10/ 8/ 11 1022.0  
ACE BASIN NERRS NOT AVBL  
FORT PULASKI 1724 52 52 70/ 14/ 18 1022.6  
SAPELO ISLAND 1700 61 30/ 9 1022.0  
 

 
 
ANZ835-935-AMZ111-154-330-350-352-354-370-450-454-472-231900-   
..C-MAN AND BUOY OBSERVATIONS
 
 
 
STATION/POSITION TIME TEMP WIND PRES WAVE SWELL
 
AIR SEA DIR/SP/G HT/PER HT/PER/DIR  
(UTC) (F) (DEG/KT/KT) (MB) (FT/S) (FT/S/D)  
BUOY 41004 1750 54 65 30/ 19/ 25 1021.3F  
BUOY 41008 1750 54 55 40/ 16/ 19 1020.6F 2/ 3  
FOLLY BEACH CMAN 1800 54 20/ 8/ 9 1022.0F  
CAPERS NEARSHORE NOT AVBL  
FRIPP NEARSHORE 1708 51 54 60/ 16/ 23 1022.1F  
 
 
STATION/POSITION TIME TEMP WIND PRES WAVE SWELL
 
AIR SEA DIR/SP/G HT/PER HT/PER/DIR  
(UTC) (F) (DEG/KT/KT) (MB) (FT/S) (FT/S/D)  
5E ST. MARYS GA 1730 54 59 N/A 2/ 3  
FRYING PAN BUOY 1750 62 360/ 14/ 17 1020.5F 4/ 5 2/120/14  
BUOY 41025 1750 46 69 340/ 19/ 27 N/A 4/ 6 2/ 50/11  
CAPE LOOKOUT NC 1800 47 350/ 15/ 18 1021.0F  
BUOY 41002 NOT AVBL  
BUOY 41010 1750 71 77 10/ 10/ 12 1017.9F 3/ 5 3/330/ 5  
ST AUGUSTINE FL 1800 58 60 360/ 16/ 17 1019.9F  
 

 
 
 
CLICK HERE TO GO TO PREVIOUS BULLETINS.

The Nexlab SC Page
The Nexlab GA Page Main Text Page